Game Details

[ Leader Board ] [ Players ] [ Opponents ] [ Guilds ] [ Areas ]

Game Details for: ChuckieB

Game Progress

Quest Completed on Day
Ackeron Savior 85
Earth Savior 85
Plasma Cube 81
Rescue Annie 80
Arena 5 67
Xornium 55
Pulse Matrix 53
Arena 4 52
Lab Power 46
Old Lab 44
Trader 4 40
Trader 6 40
Arena 3 31
Data Cubes 29
Chaak Mine 16
Insect Cave 16
Arena 1 11
Dave and Heidi 7
Mushroom Stew 5

Full Telemetry

Time Game Day Game Hour Game Minute Type Details Value Extra Zone X Y Credits Guild
6/29/2016 10:14:42 PM 80 23 36 Combat Lv 2 Destroyer 0 Win Base1 16 4 14687 Smuggler
6/29/2016 10:12:41 PM 80 23 32 Combat Lv 1 Annihilator 0 Flee Base1 14 15 14401 Smuggler
6/29/2016 10:12:21 PM 80 23 30 Combat Lv 2 Destroyer 0 Flee Base1 15 14 14401 Smuggler
6/29/2016 9:59:54 PM 80 22 58 Combat Lv 3 Annihilator 0 Win Base1 23 2 10035 Smuggler
6/29/2016 9:56:52 PM 80 22 46 Combat Lv 2 X Series 0 Win Base1 15 18 8122 Smuggler
6/29/2016 9:55:53 PM 80 22 44 Combat Lv 3 Destroyer 0 Win Base1 12 14 8122 Smuggler
6/29/2016 9:54:47 PM 80 22 44 Combat Lv 1 Annihilator 0 Win Base1 8 14 7824 Smuggler
6/29/2016 9:52:57 PM 80 22 36 Combat Lv 1 Annihilator 0 Win Base1 11 4 6337 Smuggler
6/29/2016 5:07:54 PM 80 20 57 Combat Lv 3 Annihilator 0 Win Base1 23 2 8939 Smuggler
6/29/2016 5:05:27 PM 80 20 55 Equip Exquisite Shiny Energy Field 608 Base1 23 8 8402 Smuggler
6/29/2016 5:04:42 PM 80 20 49 Combat Lv 3 Destroyer 0 Win Base1 12 15 8402 Smuggler
6/29/2016 5:03:55 PM 80 20 49 Equip Alien Kinetic Field 525 Base1 12 15 8085 Smuggler
6/29/2016 5:02:48 PM 80 20 47 Combat Lv 1 Annihilator 0 Win Base1 3 16 8085 Smuggler
6/29/2016 5:01:50 PM 80 20 42 Combat Lv 2 Destroyer 0 Win Base1 4 12 6657 Smuggler
6/29/2016 4:59:32 PM 80 20 33 Combat Lv 1 Annihilator 0 Win Base1 11 4 6369 Smuggler
6/29/2016 10:24:20 PM 81 0 25 Combat Lv 2 Destroyer 0 Flee Base2 23 4 17524 Smuggler
6/29/2016 10:15:52 PM 80 23 39 Combat Lv 3 Destroyer 0 Win Base2 16 3 15009 Smuggler
6/29/2016 10:08:48 PM 80 23 25 Save 0 2 Base2 20 7 14401 Smuggler
6/29/2016 10:08:22 PM 80 23 21 Combat Lv 3 Annihilator 0 Win Base2 6 11 14401 Smuggler
6/29/2016 10:06:39 PM 80 23 15 Combat Lv 1 X Series 0 Win Base2 13 18 13796 Smuggler
6/29/2016 10:04:56 PM 80 23 14 Combat Lv 1 Annihilator 0 Win Base2 12 19 13201 Smuggler
6/29/2016 10:03:33 PM 80 23 11 Combat Lv 2 Destroyer 0 Win Base2 19 16 12432 Smuggler
6/29/2016 10:02:09 PM 80 23 9 Combat Lv 2 X Series 0 Win Base2 11 13 12164 Smuggler
6/29/2016 10:00:52 PM 80 23 2 Combat Lv 3 X Series 0 Win Base2 12 7 10617 Smuggler
6/29/2016 9:49:18 PM 80 21 29 Combat Lv 2 Destroyer 0 Win Base2 22 5 14288 Smuggler
6/29/2016 9:48:19 PM 80 21 24 Combat Lv 3 Annihilator 0 Win Base2 6 11 14002 Smuggler
6/29/2016 9:44:58 PM 80 21 17 Combat Lv 2 Destroyer 0 Win Base2 14 17 13445 Smuggler
6/29/2016 9:43:44 PM 80 21 15 Combat Lv 2 Destroyer 0 Win Base2 19 16 13145 Smuggler
6/29/2016 9:42:51 PM 80 21 13 Combat Lv 2 X Series 0 Win Base2 11 13 12877 Smuggler
6/29/2016 9:41:47 PM 80 21 13 Combat Lv 1 Annihilator 0 Win Base2 10 13 12373 Smuggler